STARLINK-1142 (45093 NORAD) Tracking and Keplerian Element Data

This shows tracking and keplerian element data for the satellite.

Feedback or suggestion? Click here.




ElementValue
Catalog45093
NameSTARLINK-1142
Epoch Orbit178
Epoch Day47.66667824
Epoch Year2020
RAAN145.6355
Inclination52.997
Eccentricity0.0001607
Argument of Perigee53.1927
Mean Anonmoly214.7076
Mean Motion15.73202841
Decay Rate0.00033978
L11 45093U 20006BB 20047.66667824 .00033978 00000-0 24545-3 0 9990
L22 45093 52.9970 145.6355 0001607 53.1927 214.7076 15.73202841 1781

Live tracking and technical data element details for STARLINK-1142 (NORAD 45093). STARLINK-1142 can be tracked NOW for your location showing map with azimuth and elevation plus other details from your city location.

Track the satellite on the map from your city or location and see movement details for azimuth, elevation, latitude, longitude, range, height, and movement on the map or in text.







IsCatalogInMostPopularTable: catalog: 45093, numindb: 1
Update: records affected: 1



GetName: 45093 STARLINK-1142

Hit Count: updated at: Tue, 18 Feb 2020 00:17:40 GMT